Theta_e
343 345 347 348 347 348 349 349 349 348 347 346 345 343 343 343 343 342 341 341 341 342 342 341 341 342 344 345 346 346 346 344 344 344 345 345 345 343 342 345 345 345 343 343 339 339 341 341 340 341 342 341 342 343 344 345 344 345 344 345 345 345 345 345 344 345 347 344 345 346 346 346 347 346 345 345 345 344 342 342 340 337 338 340 341
342 347 348 349 348 349 348 348 349 349 348 347 346 345 344 343 341 341 341 341 339 338 337 339 345 343 342 344 345 345 343 342 342 342 343 343 343 342 341 342 342 342 341 338 339 341 340 341 341 340 340 341 342 342 343 342 344 343 344 344 344 343 343 344 344 344 346 345 345 345 345 346 346 345 345 344 345 345 343 344 343 338 340 344 345
345 346 347 349 349 351 349 348 349 348 347 345 345 344 344 344 342 339 339 339 338 339 339 339 341 342 342 343 343 345 342 340 340 340 342 341 341 340 341 341 340 340 338 338 341 339 339 339 339 340 340 340 341 342 342 343 343 343 344 343 343 343 344 344 344 344 345 344 344 344 344 344 344 345 346 346 345 344 343 343 342 343 341 343 343
344 346 347 348 346 349 349 348 348 348 347 345 344 344 343 343 343 341 339 339 339 338 339 345 344 344 346 345 344 344 340 339 340 341 341 341 340 339 339 341 341 341 338 338 337 339 338 340 340 340 338 338 338 339 340 342 342 343 343 342 343 343 343 343 343 343 343 345 344 341 341 342 342 343 345 344 345 344 341 341 342 342 342 342 342
345 346 347 349 350 349 349 349 348 348 347 346 345 344 343 343 342 342 341 339 337 337 337 343 342 345 345 345 345 344 342 340 339 338 338 338 337 338 341 343 342 342 341 341 339 337 339 340 339 338 338 337 336 337 339 340 341 342 342 342 343 343 342 342 342 342 342 342 342 339 339 341 341 342 344 345 344 341 340 341 341 342 341 341 341
345 346 347 348 348 349 348 349 348 348 347 347 345 344 343 343 342 341 340 340 339 339 340 342 343 345 345 346 346 344 341 339 339 338 338 339 338 338 339 341 342 340 340 342 341 340 338 337 338 337 337 338 338 337 338 338 340 341 342 342 342 342 342 341 341 341 341 340 340 340 340 340 340 340 344 344 342 339 340 340 340 341 340 340 341
344 346 347 348 348 348 346 348 348 348 347 345 345 345 344 343 342 341 340 340 340 341 341 341 343 347 346 347 345 342 340 339 339 338 337 337 337 339 340 340 342 342 342 341 342 342 340 340 339 338 339 338 338 338 339 339 340 340 340 341 342 341 341 340 340 340 340 339 340 340 340 340 341 341 342 341 342 341 339 340 341 341 341 341 340
346 347 348 347 349 347 346 347 348 347 346 346 346 345 344 344 343 341 341 340 341 340 342 344 344 345 344 346 346 343 341 339 338 337 337 339 338 340 343 342 342 342 342 343 342 342 341 340 340 339 339 338 339 339 339 339 339 340 340 340 340 340 340 339 339 339 339 338 340 340 338 341 340 340 339 341 342 340 341 342 341 340 340 339 337
343 345 346 347 349 344 346 347 347 346 347 347 345 344 344 344 344 343 341 340 339 340 339 343 346 346 345 346 344 341 340 339 338 338 338 337 337 338 342 341 340 339 339 339 339 339 339 339 339 339 338 338 338 338 338 338 339 340 340 339 340 339 338 338 339 338 337 338 339 338 338 339 338 338 340 340 339 340 339 338 339 339 338 336 336
342 345 346 348 349 343 346 346 347 347 348 346 345 344 344 344 344 343 341 341 340 340 340 339 344 345 345 345 344 341 339 339 338 337 336 337 337 337 337 338 338 339 339 340 340 338 337 337 337 338 339 338 338 337 337 338 339 339 340 339 339 339 338 338 338 336 337 338 338 339 338 338 338 337 338 340 340 339 337 334 336 336 335 335 335
342 343 346 348 349 343 347 348 348 347 347 346 346 345 344 344 343 344 342 341 341 341 341 340 344 344 345 344 344 341 339 337 337 337 336 335 338 338 337 339 338 338 340 340 340 340 339 339 338 338 339 338 338 338 338 338 338 339 339 339 338 338 337 337 336 337 337 337 336 336 337 338 337 337 338 338 339 338 335 335 335 336 335 335 335
342 344 346 347 347 341 346 347 347 347 347 346 346 345 345 344 343 344 342 342 342 342 341 341 341 343 342 342 342 341 339 336 336 336 336 336 336 336 336 339 339 338 338 337 338 338 338 340 339 339 339 338 337 337 337 338 339 338 338 338 337 336 336 336 335 335 336 336 336 335 336 335 335 335 336 337 336 337 336 335 335 335 334 333 333
342 343 345 348 349 341 344 346 346 347 347 347 346 345 344 344 344 343 343 342 342 341 341 340 339 339 341 343 342 341 339 337 335 334 335 336 335 336 336 336 336 337 337 337 337 337 337 337 336 337 338 337 337 337 337 338 338 337 337 336 336 335 334 333 335 335 335 336 336 336 336 336 335 335 335 335 336 336 335 335 334 333 333 332 332
342 343 344 346 347 346 340 342 344 346 347 347 346 344 344 344 344 344 343 343 342 341 340 340 340 339 341 342 341 339 337 336 335 335 336 336 335 334 335 335 335 336 336 336 336 336 336 337 337 338 337 337 337 337 337 337 337 337 336 335 334 334 333 332 333 336 335 336 335 336 335 334 334 334 335 335 335 335 333 333 331 330 331 331 330
342 344 345 346 347 349 342 339 342 343 345 346 346 345 344 344 345 344 343 343 342 341 341 341 340 339 339 338 338 337 336 335 335 335 336 335 336 335 335 335 336 336 336 336 336 336 336 336 337 336 337 336 336 336 337 336 336 335 335 333 332 332 331 334 335 335 334 334 334 334 334 334 333 334 334 334 333 332 332 330 330 329 330 329 328
343 343 345 345 347 348 348 343 338 338 342 343 344 344 345 345 345 344 343 343 342 342 341 341 340 339 339 338 337 336 335 335 335 334 336 337 334 334 335 334 336 336 335 336 336 337 336 336 336 336 336 336 336 336 336 336 335 334 333 332 330 330 328 330 335 334 334 333 334 333 333 333 332 333 333 332 332 331 330 329 329 328 328 327 327
342 344 343 345 347 347 347 348 343 333 335 337 339 340 343 345 345 345 344 343 343 342 341 340 339 339 338 337 337 339 338 335 334 334 338 337 334 337 337 334 336 336 336 337 337 336 337 336 335 335 336 336 336 336 336 335 334 333 332 330 330 329 327 328 334 333 332 332 331 331 330 330 331 332 331 331 330 329 328 328 328 328 327 326 326
343 343 342 343 345 346 346 348 348 348 349 340 333 338 340 343 343 343 343 343 343 343 342 341 340 340 340 339 338 339 338 337 336 337 338 336 337 338 338 336 336 336 336 336 336 335 335 334 335 335 335 336 335 335 335 334 333 332 331 329 329 328 328 328 333 332 331 331 330 330 330 330 329 329 330 330 329 328 328 327 327 327 326 325 325
340 341 341 343 343 345 346 347 347 347 347 348 348 345 334 339 340 341 341 341 341 341 341 339 339 339 337 336 335 333 332 334 335 336 334 335 334 332 337 337 336 337 336 335 334 334 333 333 334 334 334 334 334 334 334 333 331 330 329 327 325 324 325 329 332 332 331 330 330 330 328 329 329 328 328 328 329 328 327 326 325 325 325 325 324
339 339 339 342 343 344 346 346 347 346 346 347 346 347 336 333 337 337 338 339 338 338 336 335 333 333 332 331 329 333 330 333 326 332 330 333 329 331 333 336 336 335 335 334 333 333 333 333 333 333 334 334 333 332 331 331 330 329 327 326 325 323 332 332 332 331 330 329 330 328 329 330 329 328 328 327 327 327 326 325 325 325 324 324 323
338 339 339 340 343 343 344 345 346 346 346 346 346 346 345 331 333 332 333 335 336 334 332 326 324 324 327 324 327 336 337 336 335 334 326 336 324 327 332 336 336 334 334 333 333 333 332 333 332 332 332 330 327 326 327 328 327 327 326 325 322 332 333 333 332 331 331 330 328 329 330 330 328 328 329 327 326 325 325 325 325 324 323 323 323
335 336 339 339 340 342 344 344 344 345 345 346 346 346 347 340 345 346 345 339 332 329 336 341 336 340 325 333 335 335 336 337 336 333 334 334 333 325 329 334 336 334 334 333 332 331 331 331 331 330 329 328 325 331 327 322 322 324 322 321 332 333 333 332 331 331 331 331 329 329 332 328 328 328 327 326 326 326 325 324 323 323 323 323 322
333 335 337 338 339 341 342 342 343 345 345 344 345 345 344 345 346 344 344 335 339 341 340 340 341 339 339 338 334 333 335 335 336 333 335 325 334 325 328 330 332 331 333 333 332 331 331 331 329 326 325 324 330 332 332 331 329 318 320 331 331 331 332 332 331 330 330 330 330 328 330 328 328 328 327 326 325 324 324 324 323 323 322 321 321
334 335 336 338 339 339 341 342 342 344 344 343 344 344 344 344 344 344 343 342 342 340 340 339 339 339 340 338 334 335 335 335 327 326 330 334 333 323 324 326 327 327 328 331 331 330 327 325 323 321 325 327 331 330 330 331 331 331 332 331 331 332 331 331 331 331 331 330 329 327 329 328 327 327 326 325 325 324 323 323 322 322 321 320 320
336 336 337 336 338 339 340 341 342 343 343 342 342 343 344 343 343 343 342 342 341 340 339 338 338 338 338 337 337 336 335 334 334 334 334 334 334 333 333 333 333 334 326 332 331 330 328 328 327 324 329 330 329 329 330 330 330 330 330 330 330 330 330 331 331 331 331 330 330 324 328 328 326 326 327 325 324 323 322 322 321 320 320 319 318
337 335 336 337 337 338 339 340 341 342 342 342 342 342 342 342 342 342 342 341 341 340 339 337 337 337 337 337 336 335 334 333 335 335 334 334 332 332 332 332 331 332 332 330 329 329 329 327 327 328 327 328 329 329 329 328 329 328 329 329 329 330 330 330 331 330 330 330 329 322 326 328 326 325 325 325 323 322 322 321 321 320 319 320 318
335 336 337 338 338 339 339 340 340 341 341 342 342 342 341 342 341 341 341 340 341 339 338 337 336 336 336 336 335 333 333 331 332 334 333 334 333 333 332 332 331 330 331 329 329 329 327 326 326 326 326 327 327 327 327 328 329 329 329 329 329 329 329 329 330 330 328 328 324 319 325 328 326 325 325 324 323 322 321 321 321 320 321 319 318
335 335 336 337 338 339 340 340 339 339 340 341 341 341 341 341 342 341 340 339 339 338 337 337 337 336 336 335 333 334 333 331 331 332 332 333 332 332 333 331 331 331 331 330 328 327 325 325 325 325 325 326 326 326 327 327 327 329 329 329 329 328 328 329 329 329 328 328 327 322 322 324 326 326 324 324 323 321 321 321 321 320 320 319 320
333 334 335 336 338 338 339 339 339 339 339 340 340 341 341 340 341 340 339 337 339 339 338 338 336 335 336 336 335 333 332 332 331 331 331 331 332 331 330 330 330 330 329 328 328 326 325 324 324 325 326 325 325 326 326 326 327 328 328 328 328 328 328 328 328 327 328 327 327 323 320 323 326 327 324 324 323 323 322 321 321 320 320 321 318
332 333 335 336 337 338 338 338 339 339 339 339 340 340 341 340 340 340 340 339 339 339 339 337 336 335 335 335 335 334 333 332 331 331 330 330 330 330 330 330 328 328 327 327 326 325 324 323 324 324 324 325 325 325 325 325 325 326 327 327 327 327 328 327 327 326 326 327 327 325 315 319 324 326 326 323 323 323 322 321 321 320 320 319 317
333 333 334 334 336 337 338 338 339 339 340 339 339 339 340 339 340 341 341 339 339 339 338 337 336 335 335 335 334 334 334 332 331 331 330 330 329 329 328 329 328 326 327 327 325 325 324 323 324 323 324 324 324 324 324 324 325 324 325 326 327 326 326 326 325 325 324 325 327 326 324 315 319 324 326 323 323 323 323 322 321 322 321 320 319
332 333 335 336 335 335 337 338 339 339 338 338 339 339 339 339 339 339 340 340 340 340 339 338 334 335 335 335 334 334 333 332 332 332 330 329 328 327 328 327 326 326 326 325 323 323 323 323 322 322 323 323 322 322 323 323 323 324 323 323 323 323 323 323 323 323 324 325 325 325 324 323 316 319 323 324 323 323 324 323 321 321 321 320 320
333 334 335 336 334 335 335 337 338 338 337 338 338 339 339 339 339 339 339 340 340 340 339 338 336 335 335 334 334 333 333 331 330 331 329 329 328 328 327 326 325 323 322 322 322 321 319 319 319 318 318 319 320 320 320 320 321 321 320 321 321 320 320 320 321 321 321 322 323 323 324 324 324 316 317 320 324 324 323 323 321 321 321 320 320
333 335 336 334 334 335 336 337 338 338 337 338 338 338 338 339 339 339 339 340 339 339 338 339 338 336 334 333 333 333 331 331 330 330 330 329 329 328 327 325 323 320 320 320 320 319 319 318 318 315 313 316 319 320 319 320 319 319 319 318 317 318 317 317 316 318 319 320 321 321 322 322 323 323 322 317 318 322 325 322 321 321 320 320 320
333 334 334 335 334 334 335 335 336 338 338 338 337 336 338 339 339 339 339 339 339 339 338 338 339 337 335 333 333 332 331 330 328 327 327 327 327 326 325 326 327 322 319 319 320 319 319 318 317 317 317 317 319 319 318 319 318 317 317 315 315 313 311 311 311 312 315 316 316 317 318 320 321 322 322 321 314 314 321 323 321 321 320 321 320
331 333 334 334 334 334 335 334 335 336 336 336 336 335 335 336 337 333 339 339 339 338 338 338 338 337 335 334 333 333 332 331 329 327 326 326 326 326 325 325 325 322 319 318 319 318 318 319 318 317 316 317 317 317 317 318 317 316 314 311 310 308 308 308 309 311 310 310 312 312 313 316 318 320 317 320 319 317 314 319 322 321 320 321 321
329 331 332 332 332 333 333 333 333 335 335 336 337 337 336 336 335 336 338 339 338 338 339 339 338 338 336 335 334 333 333 333 332 331 329 327 327 327 327 327 326 323 320 318 317 319 317 317 317 317 319 317 316 316 316 316 314 312 309 307 306 305 306 307 308 308 305 305 308 309 309 311 313 309 316 316 319 320 314 313 319 320 319 320 321
327 329 330 331 331 332 332 332 333 334 334 334 335 337 337 338 338 337 334 335 337 338 338 339 338 338 338 336 335 334 332 332 332 331 330 331 330 328 328 327 327 325 321 317 315 315 315 316 316 317 317 317 314 313 313 313 312 309 306 303 302 303 304 304 303 300 302 304 305 306 308 308 308 309 310 313 316 318 319 315 312 314 313 317 321
325 326 327 329 330 331 330 330 330 332 332 333 334 335 334 336 337 337 337 337 337 338 338 338 338 337 338 338 336 335 333 333 333 332 329 330 329 327 327 326 325 324 321 317 312 311 313 314 316 316 315 315 313 312 312 310 307 305 303 303 302 302 301 299 299 300 301 302 303 305 305 304 304 304 306 308 310 312 315 318 318 318 318 314 320
323 324 324 326 327 329 329 329 329 329 331 331 331 332 333 332 331 334 333 332 334 335 338 337 338 337 339 339 338 336 334 332 332 331 330 330 330 329 327 327 326 325 323 318 315 314 312 313 314 315 313 313 311 309 309 306 304 302 300 300 300 300 300 299 299 298 299 301 302 302 302 303 302 302 302 303 305 307 309 313 314 318 317 316 315
320 322 322 323 325 326 326 326 328 329 328 328 329 329 328 329 331 331 330 331 331 332 334 337 338 338 338 338 338 336 335 332 331 332 332 329 331 329 327 325 325 325 322 318 317 316 314 313 312 313 313 312 310 307 305 304 302 302 301 300 300 300 299 299 299 298 298 299 300 300 300 301 301 301 301 302 303 304 306 308 310 314 316 316 316
311 317 320 321 323 324 324 325 327 327 327 328 328 328 329 328 328 328 329 331 331 331 331 334 334 334 336 337 337 337 335 332 331 332 331 330 328 328 327 326 322 321 321 322 320 314 312 311 311 310 311 311 310 307 303 304 303 304 305 304 303 303 301 299 299 299 299 299 299 299 299 300 301 302 301 301 302 302 303 305 306 309 311 312 316
309 311 316 319 321 322 323 324 325 325 326 327 327 326 328 329 328 328 327 327 331 333 333 333 333 334 336 337 337 336 336 336 334 330 330 329 327 326 325 324 322 320 319 320 320 316 313 312 311 311 310 310 310 308 305 306 306 306 306 303 302 302 305 301 301 301 301 301 300 298 298 298 300 303 303 302 301 301 301 302 303 304 307 308 309
306 307 310 314 317 319 321 323 323 324 325 326 325 328 328 329 329 329 330 329 327 329 329 329 331 332 332 335 337 336 336 336 336 335 332 331 329 326 325 324 323 322 321 321 320 316 314 311 310 310 311 306 306 305 304 305 308 304 301 301 301 299 300 305 306 307 305 303 300 299 298 297 298 301 302 301 300 300 300 300 301 302 303 303 303
306 307 308 310 313 316 319 321 322 323 324 324 324 326 326 327 328 326 327 326 325 327 326 326 328 328 329 331 332 334 335 334 334 333 330 330 329 328 326 325 325 324 321 320 319 317 314 311 309 308 309 308 306 306 303 303 306 309 309 299 296 295 299 306 303 307 306 304 303 302 299 299 300 299 299 301 299 299 300 299 299 298 299 300 302
305 308 309 310 312 314 317 319 321 322 323 324 324 324 324 323 322 321 320 320 319 320 320 321 324 325 326 329 331 333 334 334 335 335 334 330 330 330 328 328 328 326 322 320 319 318 316 313 311 310 309 310 310 309 305 302 303 306 309 310 310 305 304 304 303 302 300 304 306 306 304 301 299 299 298 299 299 298 298 298 299 299 300 301 303
307 307 307 309 311 314 316 318 319 321 323 323 324 323 323 322 322 321 321 320 320 321 324 325 325 326 327 327 328 330 331 331 331 332 332 333 332 332 331 330 328 325 321 320 318 318 317 314 312 311 310 309 309 308 307 303 301 302 304 307 307 301 303 303 303 305 303 300 299 303 304 303 300 298 297 297 298 299 299 297 298 299 300 301 301
307 307 308 309 311 313 315 317 319 320 321 322 322 323 322 322 322 321 321 321 321 321 324 324 325 325 326 326 326 327 328 329 329 330 331 330 330 330 330 329 328 326 323 320 319 319 318 315 312 310 310 309 309 308 308 304 300 301 301 303 305 306 303 301 300 303 304 301 305 300 298 300 301 297 298 298 298 298 298 298 298 299 299 299 299
308 310 311 312 313 315 316 318 319 320 321 321 321 322 322 322 322 321 321 321 322 323 324 324 323 323 323 323 324 325 325 326 327 327 327 327 326 327 329 327 326 326 320 322 320 320 319 317 314 311 310 310 309 309 309 308 304 305 304 302 303 303 303 301 300 297 297 298 300 303 303 297 294 295 295 297 297 298 298 298 299 298 297 297 298
307 308 309 311 313 315 316 316 318 319 319 319 320 321 322 321 321 321 320 321 321 321 320 320 320 320 319 320 322 322 322 323 324 324 324 324 324 323 323 325 326 327 321 322 322 321 321 319 316 313 311 310 311 310 309 310 308 306 307 305 301 301 301 301 300 298 297 297 296 300 303 302 297 296 295 296 296 297 297 297 297 297 296 296 297
308 310 311 312 313 315 316 317 317 317 316 318 319 319 320 321 320 320 320 319 321 320 318 316 316 314 316 318 319 319 320 320 321 322 322 322 321 322 321 322 322 318 318 320 320 320 320 319 318 315 312 311 310 309 308 308 309 308 306 306 306 303 301 301 302 301 300 297 296 297 298 301 303 303 302 299 298 297 296 296 296 296 296 296 296
Wind_Speed
7 9 8 9 6 8 10 10 11 11 12 12 12 11 12 12 12 11 10 10 11 11 12 11 10 12 13 14 15 15 15 14 14 15 17 16 16 15 15 19 18 17 17 17 16 15 16 15 15 15 14 14 14 15 16 16 16 16 17 17 17 17 16 16 16 14 14 16 18 18 17 17 18 17 18 17 15 12 10 12 14 14 12 14 17
11 9 8 9 6 10 10 11 12 11 12 12 12 12 12 11 11 10 10 11 11 11 10 11 14 12 12 12 13 14 14 14 13 12 14 15 15 15 14 15 16 16 15 14 16 17 16 15 15 15 15 15 15 15 15 15 15 16 17 17 17 16 16 16 15 13 13 16 17 17 18 18 18 19 19 19 17 16 14 13 13 13 12 18 19
11 10 8 10 5 7 10 11 11 12 12 12 12 12 11 10 10 10 9 9 10 10 10 11 11 12 11 12 12 13 13 13 12 13 16 15 14 13 14 14 15 15 14 14 16 16 15 15 15 14 14 14 15 15 15 15 16 16 16 16 16 16 16 16 15 13 12 17 18 17 16 19 18 18 19 19 19 18 15 16 16 15 14 19 18
12 9 8 8 3 3 10 11 11 12 12 12 12 11 10 9 10 11 9 9 10 11 12 14 14 13 12 12 13 12 12 13 14 15 15 14 15 14 12 15 16 16 16 15 14 15 15 15 15 15 15 14 14 15 15 16 16 16 16 16 16 16 16 16 15 13 9 6 8 11 11 12 15 19 19 20 20 19 17 20 20 20 20 19 20
11 9 8 10 9 8 10 10 11 12 12 11 11 10 10 9 10 11 10 9 10 10 9 13 12 12 12 13 13 13 13 13 13 13 13 12 12 13 14 16 16 15 15 16 15 15 15 15 15 16 15 15 15 15 15 15 16 16 16 16 16 16 16 15 14 13 10 7 7 11 11 12 12 18 19 20 20 18 19 20 20 20 20 20 20
10 10 9 8 9 11 9 9 11 11 11 11 10 10 9 9 9 10 10 10 9 8 11 11 12 12 13 13 13 13 13 13 13 13 14 13 14 12 13 14 15 14 15 15 15 15 14 15 14 15 15 15 14 15 15 15 15 16 16 16 16 15 15 15 13 9 8 9 10 10 11 11 12 11 19 20 20 18 19 20 19 19 19 20 20
11 9 8 8 8 10 8 9 11 11 11 11 10 9 9 9 9 9 10 10 10 10 10 10 12 14 13 13 13 14 13 12 13 14 13 12 13 12 13 13 14 15 14 14 15 15 15 14 14 14 14 14 14 14 14 14 15 15 15 16 16 15 15 14 10 6 4 8 8 9 10 13 11 9 18 18 18 20 20 19 19 20 19 19 20
10 8 8 8 8 10 8 10 10 11 11 10 10 9 9 9 8 9 9 9 9 9 11 11 11 10 12 14 12 13 13 12 13 12 13 13 12 14 15 14 14 14 15 15 16 16 14 13 14 14 14 14 14 14 15 14 14 15 15 15 16 15 14 12 9 9 9 10 9 9 10 11 12 10 16 17 20 20 20 20 20 20 20 19 15
11 10 8 8 9 10 9 7 10 11 11 11 10 9 9 9 8 8 8 8 8 8 9 11 12 11 11 12 12 14 12 12 11 11 13 11 11 12 13 12 12 13 12 13 14 14 14 13 14 13 13 14 13 14 13 14 15 15 15 15 15 14 12 9 5 6 10 9 10 10 11 11 12 12 13 18 18 19 19 17 18 20 20 17 18
11 10 8 8 9 9 8 7 9 12 11 11 9 9 9 8 9 9 8 8 8 9 9 9 12 12 13 13 12 13 11 11 11 12 11 11 11 11 11 12 12 12 13 14 14 14 13 13 13 13 13 14 13 13 13 13 14 15 15 15 14 13 10 7 8 11 9 10 11 11 11 11 12 12 16 20 21 22 21 18 16 16 16 19 21
11 10 9 8 11 8 9 9 7 9 11 10 9 8 8 8 8 8 8 8 8 8 8 9 11 11 12 13 12 13 11 11 11 10 11 11 12 11 11 11 12 12 13 13 14 13 13 13 13 13 13 13 13 13 13 13 14 14 14 14 13 11 9 6 8 9 10 10 10 10 11 11 10 11 17 19 20 20 17 17 17 18 18 19 19
11 10 9 8 9 7 8 8 8 10 11 10 10 8 8 7 8 8 8 8 7 8 8 9 11 11 10 11 11 12 12 10 9 9 10 11 11 10 11 12 12 12 12 12 12 12 13 13 13 13 13 13 12 13 13 13 14 14 14 13 13 11 8 8 9 9 9 10 10 10 11 11 11 11 15 16 16 17 16 18 18 18 17 16 16
11 10 9 8 9 6 7 7 8 9 10 10 10 9 7 7 7 8 8 7 8 8 7 8 8 9 11 11 12 11 11 9 8 8 10 11 9 10 10 10 10 11 11 11 11 11 11 11 11 12 12 12 12 12 13 13 14 14 13 12 12 11 7 5 9 9 8 9 9 10 10 10 11 14 14 14 15 16 14 14 15 15 16 15 14
11 10 9 8 8 8 7 7 8 8 8 9 10 9 8 7 7 7 8 8 7 7 8 8 8 9 11 11 10 10 10 9 8 9 10 10 10 9 10 10 10 10 10 11 11 11 10 11 11 11 11 12 11 12 13 13 13 12 12 11 10 8 7 9 10 9 9 10 10 10 10 9 10 12 14 14 14 15 14 12 12 14 16 17 15
11 11 9 9 8 10 8 7 8 7 7 8 9 9 8 7 7 7 7 8 7 8 8 8 8 8 8 9 8 9 10 9 9 9 9 10 11 10 8 10 10 10 10 11 10 10 10 10 10 10 10 10 11 11 12 13 12 12 12 10 9 7 4 8 7 8 8 8 9 9 9 9 12 11 11 11 11 13 14 14 13 13 16 16 14
11 10 10 9 8 9 9 8 7 6 7 7 8 8 8 7 6 7 7 7 8 8 8 8 8 8 9 9 9 9 9 9 8 8 7 9 10 10 9 9 9 10 10 10 10 10 10 10 10 9 10 10 11 12 13 12 12 12 10 10 8 7 7 5 7 7 7 7 7 8 8 9 12 12 12 13 13 13 12 12 14 14 14 14 15
10 10 10 9 9 9 9 10 9 8 7 7 8 8 7 6 6 6 7 7 7 7 8 8 8 8 8 9 8 7 8 9 7 6 5 8 9 7 8 8 10 9 9 9 10 11 11 10 9 10 10 11 11 12 12 11 11 11 10 9 8 6 5 3 6 6 6 6 5 6 6 7 10 13 13 13 14 14 13 13 14 15 15 15 15
10 10 10 10 10 8 9 9 10 10 10 8 8 8 7 7 6 6 5 6 6 6 6 7 7 6 7 7 6 6 7 8 7 3 5 8 6 6 7 8 9 9 10 10 10 11 10 9 10 10 10 11 11 11 10 11 10 10 9 9 7 6 5 4 6 6 7 7 7 7 8 10 12 12 13 13 13 13 13 13 14 14 14 14 14
10 10 10 10 10 9 8 8 10 10 10 9 9 9 8 7 7 7 5 5 6 6 6 5 6 7 8 7 7 7 8 7 6 5 5 7 6 7 5 5 9 12 11 10 10 10 10 9 9 9 10 11 11 10 10 10 10 10 9 7 7 6 2 4 5 6 6 6 6 7 8 10 13 13 13 12 12 12 13 13 13 13 13 13 14
8 9 10 10 10 10 9 8 8 9 8 8 8 10 9 8 8 7 7 6 5 6 6 6 7 8 8 8 7 7 7 7 7 5 6 7 6 4 5 5 7 10 9 9 9 9 9 9 8 8 10 11 11 10 9 9 8 8 6 6 7 6 3 4 5 4 4 5 6 7 9 10 12 12 11 11 11 12 12 12 12 13 13 13 13
6 9 9 10 10 11 10 8 9 9 8 8 7 8 9 9 7 7 7 6 6 6 7 7 7 7 7 7 6 6 6 6 6 5 4 5 5 7 8 7 8 7 8 8 8 8 8 8 8 7 9 11 10 11 10 9 8 6 5 6 4 3 3 4 3 3 4 5 6 7 8 9 10 11 13 11 11 10 11 12 12 12 12 12 12
8 8 9 10 10 10 11 10 8 9 9 7 5 6 7 8 9 9 8 7 6 7 6 6 7 6 6 6 5 5 5 5 5 6 6 6 6 6 8 7 8 6 8 8 8 7 7 8 7 7 8 9 6 5 6 7 7 5 3 2 4 2 3 3 3 4 5 5 6 6 6 13 13 12 11 10 9 10 11 11 11 11 11 11 11
10 9 9 11 10 10 10 10 10 10 9 8 6 6 8 8 8 8 7 8 8 7 6 6 6 6 7 5 4 4 4 4 4 3 3 7 6 5 7 8 8 7 7 7 7 7 7 7 7 5 5 4 3 4 4 4 4 3 4 4 2 2 3 3 4 4 4 4 6 7 6 6 9 10 9 9 10 9 10 11 10 10 10 10 11
11 10 10 9 10 10 10 10 11 10 9 8 8 7 7 7 7 6 6 7 7 7 6 6 6 6 5 5 4 4 4 4 6 5 4 6 5 6 6 7 8 7 9 7 7 9 11 9 6 2 3 3 3 3 3 3 4 4 4 3 3 4 4 4 4 5 5 5 6 2 9 11 11 10 8 8 8 9 10 10 10 10 9 8 8
9 9 9 10 12 11 10 10 10 10 10 8 8 8 8 7 7 7 6 6 7 7 6 6 6 6 6 4 4 4 4 4 6 6 6 5 6 6 6 5 5 5 5 5 4 5 4 3 3 4 2 2 3 3 3 4 4 4 4 4 4 4 4 4 4 4 5 6 5 4 8 9 9 9 9 8 8 9 9 9 9 8 8 7 7
9 9 9 9 10 11 11 10 10 11 11 10 10 8 8 8 8 7 7 7 7 7 6 6 6 7 6 5 4 5 5 5 5 6 5 5 6 5 5 5 5 5 6 4 4 4 3 3 3 3 2 2 2 2 2 3 4 4 4 4 4 5 5 4 5 5 6 5 4 2 6 9 9 6 6 9 9 8 9 8 9 8 8 8 7
10 11 10 9 9 10 11 10 10 10 12 11 9 7 8 9 8 8 8 8 7 8 7 7 7 7 7 7 5 5 5 5 6 6 6 5 5 5 5 5 5 5 5 4 4 3 3 3 3 3 2 2 2 2 2 2 3 4 5 5 5 5 5 5 5 6 5 3 3 3 7 7 8 8 9 9 7 7 8 9 9 10 10 8 7
11 12 11 11 10 12 11 10 10 10 10 11 10 9 9 9 7 6 7 7 7 8 8 8 7 7 8 7 7 5 6 5 6 6 6 5 5 5 4 5 5 5 5 4 4 3 3 3 3 3 3 3 3 3 3 3 3 3 5 5 6 5 5 6 6 6 5 5 5 4 7 5 4 8 8 11 10 8 9 8 8 8 10 9 10
13 13 11 12 13 11 11 12 11 11 10 10 10 9 10 10 8 7 10 7 8 8 8 8 7 7 8 8 8 6 5 5 6 6 5 6 5 5 5 5 5 4 5 4 4 4 4 4 4 4 4 4 4 4 4 4 4 4 6 6 6 6 6 6 6 5 6 6 7 5 2 3 6 8 9 9 8 12 10 10 9 8 9 11 10
13 13 13 12 12 13 14 14 13 11 10 10 9 10 10 11 11 8 9 8 9 8 8 8 8 8 7 8 9 8 5 6 6 6 6 6 6 6 6 5 5 5 5 5 5 4 4 4 5 4 4 4 5 4 4 5 5 4 5 7 7 7 6 6 6 6 5 7 8 6 3 4 5 7 8 10 11 12 11 10 10 10 10 10 7
12 13 12 12 11 12 13 14 14 10 10 10 9 10 9 9 10 10 8 8 10 9 9 9 9 9 9 9 9 9 7 6 6 6 5 6 6 6 6 5 6 5 6 5 5 5 4 5 5 5 5 5 5 3 5 4 5 4 4 5 6 5 6 6 6 5 6 6 8 8 6 5 6 8 9 12 12 14 12 11 11 12 12 12 11
13 13 11 10 11 14 14 14 13 12 11 12 10 10 10 9 10 11 11 10 9 10 10 9 8 10 10 10 9 9 9 6 6 6 6 6 6 7 6 5 6 6 6 5 5 5 4 4 3 2 2 3 3 3 4 5 5 5 4 4 3 4 4 5 5 6 7 7 7 7 7 8 7 8 8 12 13 15 13 13 13 14 13 13 13
10 12 12 11 12 12 13 14 13 13 14 14 12 11 10 10 9 10 9 8 9 11 11 9 9 9 9 11 11 10 9 6 6 6 6 6 7 7 7 6 6 5 5 5 5 4 4 4 4 3 3 3 4 5 3 4 5 4 4 4 3 4 3 3 4 5 6 6 7 7 7 8 9 7 10 9 13 12 14 15 12 13 13 13 13
9 9 12 13 11 8 9 10 12 14 15 14 13 12 12 11 9 9 8 8 8 10 11 10 8 9 10 11 10 10 7 6 6 6 7 7 7 7 7 6 6 7 6 5 6 6 6 5 4 3 4 5 6 6 5 6 5 4 5 4 4 3 3 3 3 4 4 5 5 5 6 6 8 9 8 10 10 11 11 13 13 14 13 13 13
8 9 13 13 13 11 9 10 12 15 14 15 15 14 12 11 11 9 8 9 8 8 10 12 9 8 10 10 12 12 9 8 7 6 6 5 5 6 8 7 5 6 6 7 7 7 7 8 7 7 6 7 7 7 7 6 6 6 5 4 5 3 2 3 2 3 3 3 4 3 3 4 7 8 8 8 8 11 10 12 15 14 14 15 14
13 11 10 10 13 13 12 12 12 15 15 14 14 13 13 12 11 11 11 11 10 8 7 8 10 10 9 8 13 13 11 11 10 9 7 7 6 7 8 7 8 7 7 6 7 7 7 7 7 8 8 9 8 7 6 7 7 6 4 3 2 2 3 3 3 4 3 2 4 4 3 4 5 6 6 7 8 10 10 10 13 15 16 16 16
11 11 11 11 12 13 13 14 14 14 14 13 12 12 12 12 12 12 12 11 11 11 10 8 7 8 11 11 12 13 12 13 13 13 10 10 10 10 10 10 9 9 8 7 7 7 6 6 7 9 9 8 7 7 6 6 5 4 3 2 1 2 4 4 4 3 1 4 4 4 4 4 4 4 4 5 7 8 11 12 11 14 13 15 18
11 11 11 11 12 11 11 12 12 12 12 12 13 13 13 12 11 11 12 12 13 12 12 12 12 11 10 10 13 12 11 12 11 10 10 10 10 9 8 9 8 8 7 7 6 5 5 7 8 8 8 7 6 6 7 6 3 3 2 2 2 3 4 3 2 2 3 4 4 5 5 3 3 3 4 4 5 6 7 10 12 11 14 13 17
9 11 11 10 10 10 10 11 13 12 12 12 12 12 12 12 11 12 12 13 11 10 9 8 9 9 11 11 10 12 13 15 14 10 7 8 7 6 7 7 7 8 7 7 5 6 7 8 10 8 7 6 3 4 5 3 2 2 2 4 3 4 3 2 2 4 4 5 4 5 3 5 4 4 4 4 4 5 6 7 8 8 10 15 17
9 9 11 11 11 11 10 10 13 13 11 11 10 11 11 11 11 9 11 12 12 11 11 11 8 8 8 11 13 12 13 12 14 11 11 13 13 13 11 9 9 9 11 8 9 10 11 11 11 9 7 6 2 2 2 3 1 1 2 4 4 4 5 4 5 4 4 6 5 4 5 4 5 5 4 3 4 5 5 6 6 7 9 13 18
9 10 11 12 13 12 11 14 11 13 12 12 11 12 12 11 11 11 11 9 11 12 11 11 11 12 12 10 8 8 10 12 11 13 13 14 14 10 8 7 9 12 12 10 11 10 9 8 6 5 8 8 6 3 2 4 3 3 3 5 6 4 6 6 7 6 6 6 4 4 5 5 6 6 5 4 5 5 5 6 6 7 6 7 10
8 9 12 12 11 12 12 12 10 11 13 13 12 12 12 11 10 11 11 9 8 9 10 9 10 11 12 11 11 8 6 7 9 11 11 12 9 8 9 10 8 7 9 9 8 9 7 7 5 5 7 10 8 7 5 7 4 8 5 4 6 6 9 7 8 10 9 7 6 6 6 7 8 7 5 5 6 5 5 5 5 6 5 6 9
6 8 9 9 10 11 11 10 10 11 11 12 12 12 12 11 11 8 9 9 9 8 8 6 5 7 8 9 12 13 12 10 9 8 9 8 8 7 7 7 8 9 8 10 12 9 9 12 11 10 8 7 7 5 8 11 7 3 2 3 7 5 5 6 8 13 11 10 6 7 7 7 10 8 7 6 6 6 5 5 6 7 7 6 7
5 6 7 9 8 9 10 10 10 10 10 11 11 11 11 10 11 10 8 9 7 8 10 11 10 9 10 8 10 13 13 11 11 11 12 13 13 12 9 8 8 9 9 10 13 10 9 10 10 11 8 6 7 7 9 9 7 8 3 8 2 1 7 8 9 11 13 13 10 10 7 8 7 9 7 8 8 6 5 4 7 7 6 7 6
6 7 7 8 6 10 10 10 9 10 9 10 11 11 9 9 7 1 2 1 2 6 7 9 11 12 11 10 10 9 8 8 8 8 7 8 10 12 10 9 9 11 10 9 9 9 10 9 11 10 10 10 8 7 7 9 10 10 8 4 1 2 9 5 2 6 6 9 14 13 10 11 13 10 8 10 7 6 4 5 5 4 7 6 7
5 6 6 7 7 7 8 9 8 8 9 10 10 10 10 11 8 8 9 10 10 10 12 12 10 12 12 10 10 9 9 9 9 8 8 7 7 8 8 8 9 8 7 6 9 8 9 10 10 11 13 12 11 9 7 7 11 10 10 7 5 7 4 2 2 6 3 6 7 11 12 11 10 10 8 8 8 7 8 10 10 11 9 9 9
3 3 4 5 7 6 7 8 7 7 8 8 10 10 11 10 12 12 11 10 10 10 9 8 9 8 9 11 10 10 12 12 12 13 13 12 11 11 11 12 12 11 8 8 8 10 8 9 8 10 11 11 11 10 9 8 6 9 9 12 9 4 3 3 8 5 9 3 6 9 11 13 10 13 13 13 13 9 9 10 11 11 12 9 8
1 2 3 4 7 7 7 8 7 7 7 8 11 11 10 11 11 12 10 11 11 9 8 8 8 8 8 9 8 9 9 10 10 10 10 10 9 9 8 9 10 10 8 9 10 10 8 8 8 9 7 7 10 11 7 6 9 10 10 14 13 9 7 6 4 7 9 11 8 4 5 9 7 8 15 14 14 14 13 11 12 13 10 7 8
1 1 3 4 4 5 6 6 6 6 6 9 10 11 10 10 10 10 10 9 9 8 7 6 7 7 9 8 8 9 8 9 8 9 8 6 6 7 7 7 7 8 6 7 9 9 10 11 11 10 11 11 11 12 11 10 10 12 8 12 11 9 8 9 7 2 8 10 14 12 10 2 4 6 8 11 11 14 13 14 13 13 11 8 9
2 2 2 2 3 3 4 5 5 4 5 8 9 10 10 9 9 10 10 9 8 7 5 5 6 6 6 7 8 8 8 8 7 7 7 6 6 5 6 6 7 7 7 8 9 10 10 10 11 10 11 13 11 12 14 12 11 10 10 6 8 9 9 9 9 8 6 8 13 11 10 10 11 7 11 12 14 13 15 12 12 13 13 9 10
3 3 3 3 3 4 4 5 4 4 5 6 7 8 8 8 8 8 9 9 8 8 6 6 5 5 6 8 7 7 7 7 7 7 7 6 6 6 6 6 5 4 3 4 6 8 8 9 10 12 12 11 9 9 11 12 9 7 10 7 9 10 11 12 13 11 10 11 11 12 12 14 14 12 9 11 11 11 9 9 10 11 13 9 10
Wind_Direction
164 152 147 133 174 157 148 127 116 113 105 102 99 95 89 86 91 95 100 108 108 107 103 92 85 88 85 88 85 83 80 79 77 82 84 81 79 76 78 81 79 77 77 79 81 81 82 78 77 78 76 74 76 76 74 74 72 69 68 65 62 62 59 57 56 46 55 77 80 81 82 82 81 80 78 75 68 65 73 85 84 81 80 80 80
157 152 146 146 173 159 139 130 124 116 106 104 101 96 92 91 91 100 109 108 104 97 103 90 83 85 87 87 89 85 81 80 82 83 82 82 81 79 76 81 83 79 77 79 80 81 82 81 77 75 78 79 79 79 78 78 68 67 64 63 62 62 60 58 55 52 58 73 82 83 82 81 82 82 80 79 71 62 55 58 67 79 78 71 66
144 147 144 138 175 156 138 132 126 115 108 105 101 99 99 101 101 97 96 95 95 93 88 104 108 97 97 103 99 91 87 89 90 89 84 81 78 80 86 84 79 79 80 81 81 85 81 81 80 81 79 82 82 79 78 73 67 65 64 63 63 60 59 58 57 55 60 85 85 81 77 80 81 83 83 79 74 69 65 71 78 83 83 81 79
141 144 143 129 187 155 135 132 122 111 110 106 105 104 106 103 103 105 102 108 112 113 108 88 90 91 85 90 98 97 96 94 93 91 86 85 85 83 91 94 92 90 85 80 82 79 81 80 79 79 82 83 84 81 77 70 69 67 66 65 63 62 63 62 59 56 47 60 104 95 88 88 86 85 85 83 79 74 74 78 77 80 83 82 82
140 143 140 149 157 137 130 124 124 117 113 111 109 109 109 107 106 105 105 99 94 95 100 97 101 103 104 103 102 102 101 100 101 99 98 95 95 97 91 82 84 85 88 89 84 84 86 86 84 85 84 83 83 82 78 78 77 75 70 67 65 66 66 64 63 59 51 54 82 91 88 84 83 83 85 82 81 80 78 77 78 79 79 78 77
142 144 144 151 149 134 125 129 129 122 117 113 111 112 111 108 107 105 106 108 107 106 102 97 98 98 104 108 107 102 102 103 103 99 95 99 98 96 96 104 103 97 93 92 90 88 81 83 85 86 88 89 86 85 84 86 80 74 72 70 70 68 66 67 66 56 56 59 66 86 85 86 79 75 82 85 85 81 80 77 75 79 79 82 82
143 143 148 153 151 136 131 136 136 126 120 117 118 117 115 113 108 109 111 113 112 103 93 100 106 109 110 108 108 103 100 102 101 100 104 96 93 97 97 92 90 90 89 89 88 86 85 86 86 85 85 84 85 85 86 84 80 78 76 76 74 66 65 62 56 44 69 89 85 87 87 85 85 84 82 83 84 81 80 80 80 77 76 74 75
145 149 155 152 149 133 133 142 142 129 126 122 123 121 119 120 117 114 109 109 107 107 103 99 89 88 104 108 110 105 103 103 104 107 96 93 93 94 93 98 98 94 90 88 86 84 86 85 86 88 88 89 87 88 85 85 84 80 78 80 76 67 65 66 59 53 65 81 77 81 84 87 86 85 81 90 86 84 79 77 74 73 72 71 68
152 155 155 150 140 127 136 148 144 134 130 127 125 127 125 123 121 114 111 111 106 104 101 103 105 103 97 100 103 104 102 104 106 98 98 103 101 102 109 101 93 90 89 87 85 86 87 88 89 91 90 88 87 85 87 86 85 83 82 81 77 69 60 47 33 97 84 81 81 79 84 88 87 85 82 80 79 73 73 77 78 75 72 72 74
154 155 155 154 148 127 140 150 149 138 133 131 130 131 129 126 125 117 114 112 101 93 100 102 93 98 101 105 105 99 99 100 101 100 105 100 96 95 95 96 97 96 92 88 86 90 92 92 90 89 88 87 87 89 89 88 87 86 84 83 78 71 67 61 69 70 84 82 78 80 73 80 88 87 84 81 80 79 76 71 75 76 77 78 75
155 155 158 154 141 126 151 150 148 142 136 134 135 130 131 128 124 121 117 114 103 105 109 111 101 100 102 103 100 101 98 100 104 104 96 94 88 92 95 99 100 94 89 88 89 91 94 96 94 93 94 90 87 89 89 88 86 84 84 83 76 69 59 51 73 82 81 86 87 88 84 79 85 87 87 86 87 84 80 81 81 80 76 75 74
159 157 160 146 127 130 146 151 155 147 140 140 133 134 132 131 128 125 124 116 111 100 106 106 113 110 105 103 104 102 99 96 100 106 105 91 96 101 94 74 73 84 86 84 89 90 90 88 89 93 95 93 92 90 91 89 88 86 81 77 74 68 56 69 83 88 84 82 76 76 80 83 84 87 88 90 89 89 87 83 83 81 77 73 74
160 160 159 148 156 133 148 154 153 154 145 143 136 137 139 137 136 132 129 126 120 112 106 107 102 108 106 106 106 104 103 106 105 106 105 102 99 95 92 86 83 87 90 93 89 87 86 87 89 92 97 98 98 96 95 94 92 87 82 80 77 69 46 77 96 94 94 91 91 87 87 85 87 90 91 89 87 81 83 87 85 87 88 84 84
160 159 162 160 156 150 144 149 156 160 150 146 140 142 147 145 143 139 135 131 125 122 115 105 111 116 118 116 113 114 111 109 116 122 113 111 97 102 102 104 104 98 98 92 86 87 90 94 95 97 100 100 99 99 99 99 97 89 84 81 76 69 95 83 94 94 89 85 82 84 85 86 87 90 84 83 83 86 85 86 87 87 82 83 81
162 162 160 169 158 167 141 151 161 161 145 147 144 146 151 153 149 146 138 134 133 129 123 111 109 104 108 115 115 107 111 114 122 125 120 113 120 110 99 100 100 103 96 96 93 90 90 93 94 95 100 101 101 100 102 104 96 90 83 73 62 37 45 101 98 96 89 84 85 84 82 84 84 83 88 98 99 94 94 93 91 93 98 91 87
164 167 164 172 165 159 169 150 163 152 151 151 148 149 152 157 155 150 144 141 140 138 129 127 120 116 110 107 109 113 114 117 117 118 104 98 101 111 112 109 99 99 101 96 98 94 91 90 94 96 99 107 106 106 109 102 93 87 80 72 59 47 18 91 100 94 94 99 95 86 85 85 89 90 90 91 92 96 97 94 96 95 93 97 99
163 172 170 175 174 172 168 172 160 154 152 154 151 149 155 147 156 150 149 147 145 140 138 135 130 126 120 119 111 106 108 117 120 107 100 122 116 112 121 111 107 110 107 104 96 93 88 92 96 101 103 104 109 111 107 96 92 87 81 77 66 60 29 92 98 94 88 77 76 91 97 99 93 97 99 99 101 103 102 97 95 96 97 97 97
168 178 176 177 182 175 175 172 166 176 168 157 154 155 154 153 149 145 147 143 144 142 137 136 131 118 107 95 99 101 111 113 118 121 70 70 69 70 80 102 112 111 105 98 96 93 96 97 98 100 105 104 106 103 93 92 89 88 87 85 73 75 48 73 107 104 96 99 96 96 97 97 101 102 98 98 101 102 101 101 102 104 105 105 106
175 184 183 180 186 178 181 179 183 185 180 176 172 159 155 153 150 146 141 144 140 136 133 117 108 108 107 103 86 79 78 91 102 90 74 61 59 91 75 97 99 91 92 97 97 100 103 101 101 101 101 102 94 85 84 87 88 90 90 83 95 84 135 128 104 109 123 115 109 105 102 114 115 112 105 102 102 103 104 105 105 106 107 107 106
178 185 189 191 191 187 187 185 186 190 189 188 183 173 156 151 152 147 143 138 136 130 117 110 109 115 110 108 103 114 110 97 97 113 77 69 41 82 93 99 110 109 108 106 108 108 109 109 107 109 95 87 84 78 73 73 83 90 85 100 110 162 153 108 114 118 108 106 111 112 133 134 119 104 97 101 107 107 108 109 112 111 110 108 108
183 189 193 194 195 195 191 190 192 192 190 194 193 183 157 148 152 147 145 137 133 121 105 108 116 117 129 119 139 154 144 134 145 146 150 88 67 101 100 86 91 102 108 111 116 116 117 114 113 112 102 92 79 72 71 70 67 66 79 114 184 201 108 121 134 114 111 122 123 120 143 106 105 114 120 117 111 111 110 114 113 112 110 110 106
186 189 196 196 197 198 196 192 195 198 193 197 193 185 166 188 187 168 172 158 140 130 151 162 157 149 129 154 169 162 158 155 136 148 162 128 107 98 102 103 103 98 113 121 124 124 124 116 111 121 111 109 128 121 100 76 63 75 76 253 223 129 144 137 127 123 126 120 117 132 146 132 122 113 106 104 110 115 117 115 116 118 115 112 113
193 191 195 197 199 199 201 197 198 198 196 197 196 191 186 196 199 189 170 176 163 174 179 174 182 172 172 178 174 163 167 157 146 124 130 63 100 106 101 108 111 112 112 118 120 123 126 112 105 108 99 128 149 133 133 138 121 136 184 209 176 167 151 149 141 135 124 111 123 112 102 96 122 108 112 114 118 118 118 115 114 115 120 120 122
194 192 192 196 196 200 201 201 199 200 202 200 199 197 195 197 201 197 189 184 181 192 191 191 192 188 184 187 178 155 168 163 85 110 124 149 124 103 89 96 93 88 110 114 101 76 79 76 73 121 165 165 148 149 149 160 165 178 182 183 178 161 165 159 147 148 140 134 124 133 138 126 118 120 118 124 120 126 123 125 121 117 115 122 124
192 191 194 195 198 199 200 201 199 202 201 202 208 206 200 200 202 203 199 197 193 194 197 199 199 198 198 196 171 158 178 166 168 164 186 173 167 173 168 175 176 152 180 149 158 142 171 162 153 221 173 160 158 158 168 170 177 182 186 182 170 173 169 160 160 152 151 149 122 10 114 123 127 131 134 128 134 130 131 131 133 128 121 123 131
189 193 196 193 197 202 202 200 200 202 203 204 204 204 202 203 204 204 203 203 201 199 200 203 202 203 205 200 174 173 184 179 177 180 185 180 181 182 186 187 180 177 185 176 181 180 167 169 186 201 178 171 167 167 181 190 186 191 189 183 182 177 177 171 160 156 156 149 129 295 145 154 150 136 123 135 141 142 146 143 137 137 135 131 135
203 208 199 200 195 199 202 203 202 201 206 210 206 196 205 215 209 204 204 204 205 204 199 205 206 202 206 204 199 185 187 185 184 187 187 186 187 186 187 181 187 188 192 194 187 172 189 172 191 193 180 171 173 174 179 197 200 197 193 193 198 195 187 183 171 169 162 161 152 254 170 174 154 149 154 163 146 159 156 157 152 153 146 144 159
211 209 207 206 202 203 200 202 207 205 206 208 208 202 206 211 207 194 207 202 200 207 207 208 204 207 206 207 212 196 190 189 186 189 190 195 192 190 191 186 186 183 185 186 179 185 186 186 194 187 184 182 185 188 187 196 191 196 190 199 203 202 197 188 181 167 168 160 175 182 188 181 151 164 172 161 175 164 167 163 167 181 157 163 166
214 211 210 211 207 204 202 205 204 202 206 205 208 208 206 209 207 201 208 190 207 212 211 209 206 208 207 212 210 207 198 194 189 188 192 197 192 194 200 199 196 189 187 194 190 190 190 195 194 196 196 195 189 196 197 197 204 200 210 199 200 210 199 190 176 176 178 180 179 164 200 177 184 196 195 200 176 165 180 177 179 178 176 177 160
213 211 210 214 214 208 211 211 209 206 203 205 209 208 209 207 210 205 208 196 215 207 211 212 211 210 208 211 211 216 206 200 186 188 191 194 194 199 207 203 198 193 194 201 198 200 197 196 203 203 204 202 201 200 203 199 210 208 213 211 210 211 200 189 181 186 187 197 203 168 183 215 232 224 197 177 181 187 181 178 188 176 192 173 188
214 215 211 212 211 209 211 212 213 211 208 206 207 213 209 209 211 213 204 197 210 212 211 209 212 216 214 209 210 216 219 205 195 190 186 193 194 202 209 203 201 197 199 203 192 202 201 204 206 208 210 210 213 196 210 209 208 209 214 219 212 211 203 195 188 190 196 201 211 198 179 198 235 253 190 188 188 200 178 180 195 182 195 187 185
216 214 211 206 210 213 213 211 211 211 214 215 208 211 214 209 211 216 221 207 200 209 213 210 212 220 216 208 209 213 218 207 202 192 194 191 198 204 209 199 207 198 198 198 185 194 199 200 199 230 228 224 218 208 216 220 212 209 208 219 223 221 207 199 198 196 202 202 203 198 188 191 213 247 209 200 200 219 168 198 198 191 197 190 192
217 215 210 207 211 212 215 214 211 212 214 218 215 213 215 216 208 210 217 217 209 211 215 207 212 216 214 213 214 215 213 208 202 201 197 199 200 203 209 201 205 193 193 187 176 177 185 191 193 194 212 225 225 214 207 229 220 210 207 212 218 227 231 223 214 211 213 209 205 204 199 191 200 212 217 214 218 222 195 203 201 204 202 195 199
206 207 207 210 207 211 210 211 208 212 214 218 221 220 218 216 212 212 208 210 210 215 220 218 203 210 210 208 204 214 202 206 204 202 206 212 206 204 208 206 202 181 182 181 195 193 197 196 185 181 209 217 218 218 210 218 219 214 211 201 218 221 223 233 243 239 237 222 223 219 203 196 212 215 205 227 254 240 216 209 203 207 203 205 204
205 204 206 207 203 207 206 213 205 211 207 217 221 225 221 218 218 213 210 211 214 210 219 228 216 201 204 200 207 213 197 199 195 198 201 206 207 209 217 223 216 196 181 188 195 199 201 197 189 198 203 218 224 216 211 216 214 214 215 203 213 215 235 246 266 263 251 260 262 254 242 213 212 214 214 214 223 226 218 212 210 207 207 207 209
213 211 207 203 209 208 205 214 212 216 216 219 222 223 222 222 222 219 217 212 215 216 216 212 213 205 204 206 205 206 198 201 199 199 202 204 205 208 210 207 203 200 202 190 196 201 204 203 200 198 202 212 213 215 211 215 208 206 201 207 212 206 240 247 240 245 264 282 257 269 249 235 225 212 200 217 216 209 216 226 212 211 209 210 214
216 214 209 202 209 209 209 215 216 214 217 216 217 222 225 225 226 227 227 221 216 220 220 222 227 212 200 197 198 203 202 204 205 203 202 202 208 213 212 205 199 197 197 199 202 210 203 201 208 212 220 220 210 217 217 223 215 199 179 203 226 221 229 231 241 246 318 256 263 262 267 258 259 269 231 229 221 211 209 221 217 210 213 217 216
219 217 212 208 208 208 209 215 221 221 219 219 217 217 221 222 219 225 226 232 234 228 227 224 222 223 221 215 205 201 207 214 211 202 212 211 213 216 215 207 202 200 195 190 192 193 205 207 220 215 219 226 213 209 212 214 205 206 209 210 223 236 242 240 242 271 248 247 243 244 247 265 257 242 249 244 242 232 216 218 222 223 214 218 225
217 214 215 214 211 210 209 214 221 222 222 224 225 227 228 229 228 227 222 223 227 233 235 235 229 222 217 213 213 212 208 210 212 204 197 209 214 215 214 193 189 199 195 197 190 193 200 212 219 213 203 216 219 219 227 192 157 184 247 241 231 240 267 287 295 258 242 239 248 251 255 250 250 250 247 247 246 246 246 225 213 217 217 215 223
216 214 213 209 210 211 211 215 218 221 220 223 222 223 223 223 226 230 238 233 231 229 223 225 219 220 224 220 213 211 210 205 207 197 205 218 227 226 217 206 208 206 213 195 206 209 209 205 210 210 197 207 214 207 176 142 124 212 262 271 260 257 246 246 248 249 256 247 236 238 244 241 242 244 234 233 241 246 246 252 233 217 218 214 218
216 212 208 210 210 209 205 214 210 215 219 218 217 218 220 223 222 221 222 228 234 238 237 227 221 220 219 222 222 213 211 204 209 211 210 218 225 218 202 192 204 216 215 206 204 206 206 205 207 198 203 209 212 180 135 117 130 240 231 269 273 250 259 252 253 250 240 246 240 231 240 249 242 239 233 222 227 226 235 236 245 238 228 227 218
216 210 213 212 210 209 210 211 207 208 215 218 218 218 221 221 222 225 228 227 221 219 230 242 246 243 237 224 222 217 207 207 208 206 212 220 216 216 213 206 187 193 211 215 208 201 182 195 186 207 208 214 219 172 158 134 211 221 221 248 256 242 234 231 239 243 237 228 220 233 231 234 240 240 238 234 232 227 228 235 238 246 245 236 235
220 209 215 210 207 207 212 209 206 204 209 213 217 220 222 223 224 230 229 233 230 228 224 225 223 236 231 222 224 227 225 217 207 213 219 216 216 215 216 204 194 197 208 219 225 207 197 203 198 208 204 213 234 182 183 192 219 166 53 340 269 277 231 222 223 237 228 224 206 222 226 231 237 235 235 238 240 229 221 221 230 233 237 230 237
211 212 207 207 207 210 209 205 206 203 206 208 215 221 222 223 223 232 232 234 239 242 248 248 247 242 237 233 235 233 237 243 234 219 217 218 211 208 203 206 210 205 209 212 222 208 193 197 198 204 202 184 204 208 192 201 216 130 221 216 263 13 291 246 228 232 213 215 206 222 213 222 222 229 233 238 237 230 221 206 225 230 237 241 234
208 208 199 201 203 207 204 201 202 201 204 202 207 217 214 215 215 151 150 179 252 239 237 238 238 241 248 241 239 237 226 221 220 214 215 212 208 210 202 204 209 213 210 209 205 199 193 187 191 196 200 210 209 214 194 198 211 202 204 111 106 256 234 278 17 261 166 210 220 218 219 226 228 224 222 234 230 234 218 216 226 233 241 240 234
206 204 201 204 201 200 200 198 202 200 201 197 200 208 208 210 195 199 208 219 230 223 227 230 231 234 236 238 238 230 227 223 222 218 199 192 200 207 212 212 218 219 212 212 226 222 212 205 199 199 209 210 217 213 208 201 221 226 239 240 210 222 179 204 110 268 148 231 232 224 225 219 225 230 228 234 230 229 237 241 230 229 225 224 224
182 162 192 203 200 199 193 193 196 196 195 198 199 202 205 207 207 209 212 214 222 230 230 237 241 241 241 243 245 248 249 250 251 255 260 257 250 240 233 229 223 217 203 209 217 217 198 194 195 203 210 205 205 224 204 196 194 242 238 243 240 208 234 172 238 279 279 183 216 228 226 226 210 220 229 229 233 231 228 233 236 233 231 220 223
103 157 170 179 187 190 185 188 191 189 186 195 197 200 201 204 207 211 215 223 227 239 237 239 239 247 245 244 246 250 248 245 248 250 251 253 250 245 233 227 221 212 198 209 214 216 211 205 202 204 209 209 210 224 216 181 193 229 207 228 235 235 211 255 277 265 276 286 252 207 246 249 221 220 234 237 234 230 233 227 232 234 231 223 227
78 122 140 156 167 168 175 178 181 181 182 195 196 199 203 205 207 211 219 227 234 238 243 244 239 239 243 245 245 245 245 243 239 241 235 231 231 235 223 217 222 226 212 216 217 213 210 206 204 205 208 213 210 214 221 215 202 228 191 221 229 231 233 241 253 222 246 259 266 256 257 181 258 238 238 232 235 233 231 232 230 234 237 232 227
43 42 60 97 123 140 155 163 171 179 183 194 197 199 203 206 209 214 219 226 228 240 245 241 243 244 243 243 242 243 245 243 239 239 242 240 241 241 250 244 232 221 202 208 214 215 216 216 210 202 204 212 213 211 216 221 215 220 221 191 204 234 243 247 234 228 242 221 261 260 256 254 252 219 214 225 229 226 230 231 234 236 236 233 226
65 78 88 100 115 137 148 151 150 167 179 188 195 199 204 210 216 220 224 232 236 239 239 236 227 227 241 245 243 247 247 245 245 245 242 245 245 246 245 246 252 261 243 221 219 218 219 217 211 210 213 213 215 214 224 234 232 218 222 217 218 203 207 213 220 214 217 235 248 257 252 248 252 263 208 213 219 222 214 220 228 229 232 224 222